Location: Wapato
(46.4478°N, 120.4212°W)
Time: 11:39:30
(UTC+00:00)

Explorer 11/Cluster Stage 4 - Visible Passes

Search period start: 15 May 2026 00:00
Search period end: 25 May 2026 00:00
Orbit: 463 x 1174 km, 28.8° (Epoch: 14 May)

Date Brightness Start Highest point End Pass type
(mag) Time Alt. Az. Time Alt. Az. Time Alt. Az.
17 May 8.9 05:32:10 10° SSW 05:33:17 12° S 05:33:17 12° S visible
18 May 8.7 05:06:52 10° SSW 05:10:34 14° S 05:10:45 14° SSE visible
19 May 8.7 04:41:37 10° SSW 04:45:38 15° S 04:48:00 13° SSE visible
19 May 9.0 06:28:06 10° SW 06:29:13 13° SW 06:29:13 13° SW visible
20 May 8.8 04:16:27 10° SSW 04:20:42 16° SSE 04:24:49 10° SE visible
20 May 8.7 06:02:54 10° SW 06:06:15 17° SSW 06:06:15 17° SSW visible
21 May 8.5 05:37:45 10° SW 05:42:38 19° S 05:43:07 18° S visible
22 May 8.6 05:12:36 10° SW 05:17:41 19° S 05:19:51 17° SSE visible
23 May 8.7 04:47:33 10° SW 04:52:44 20° S 04:56:29 14° SSE visible
23 May 9.1 06:36:00 10° SW 06:37:40 13° SW 06:37:40 13° SW visible
24 May 8.7 04:22:31 10° SW 04:27:45 20° S 04:32:54 10° SE visible
24 May 8.9 06:10:51 10° SW 06:14:13 14° SSW 06:14:13 14° SSW visible
